Location: Newark
(42.9277°N, 71.8621°W)
Time: 20:05:59
(UTC+00:00)

Transit 4A - Pass Details

Date: 21 May 2021
Orbit: 872 x 973 km, 66.8° (Epoch: 15 June)

Event Time Altitude Azimuth Distance (km) Brightness Sun altitude
Rises 07:29:17 0° 314° (NW) 3,474 11.0 -16.3°
Reaches altitude 10° 07:32:30 10° 297° (WNW) 2,525 10.0 -15.9°
Maximum altitude 07:36:22 19° 255° (WSW) 1,974 9.1 -15.4°
Enters shadow 07:36:38 19° 252° (WSW) 1,977 9.1 -15.4°
